[[{"header":{"parameterUnit":"m.s-1","parameterCategory":1,"la1":30.2991,"la2":30.254,"lo1":-89.0895,"lo2":-89.0444,"dy":0.0017,"dx":0.0017,"nx":28,"ny":28,"refTime":"2025-03-05T09:00:00:Z","depth":0,"parameterNumber":2,"parameterNumberName":"U-component_of_WINDS"},"data":[0,0,0,0,0,0,0,0,0,0,0,0,0,0,0,0,0,0,0,0,0,0,0,0,0,0,0,0,0,0,0,0,0,0,0,0,0,0,0,0,0,0,0,0,0,0,0,0,0,0,0,0,0,0,0,0,0,0,1.1115,1.1112,0,1.0847,1.0843,1.084,1.0701,1.0701,1.0701,1.07,1.0423,1.0416,1.0409,0,0,0,0,0,0,0,0,0,0,0,0,0,1.1507,1.15,1.1115,1.1112,1.1108,1.0847,1.0843,1.084,1.0701,1.0701,1.0701,1.07,1.0426,1.0417,1.0409,0,0,0,0,0,0,0,0,0,0,0,0,0,1.1297,1.1498,1.1116,1.1008,1.0995,1.0848,1.0843,1.0839,1.0701,1.0701,1.07,1.07,1.0429,1.0418,1.0407,1.0346,0,0,1.0374,1.037,0,0,0,0,0,0,0,0,1.1309,1.1283,1.1027,1.1015,1.1001,1.0807,1.088,1.0673,1.0701,1.0813,1.07,1.07,1.0551,1.053,1.048,1.0333,1.0321,1.0373,1.0367,1.0362,1.0359,0,0,0,0,0,0,0,1.1324,1.1294,1.1009,1.1023,1.1007,1.0972,1.0942,1.084,1.0687,1.0803,1.0792,1.0762,1.0544,1.0491,1.0473,1.0317,1.0374,1.0364,1.0357,1.0353,1.0107,1.0107,0,0,0,0,0,0,1.1356,1.1307,1.1017,1.1001,1.1158,1.0966,1.0932,1.0869,1.0687,1.0659,1.0763,1.0757,1.051,1.0486,1.0463,1.0378,1.0362,1.0352,1.0346,1.0107,1.0107,1.0106,0,0,0,0,0,0,1.1365,1.1332,1.1028,1.1151,1.1109,1.0959,1.089,1.0864,1.0811,1.0657,1.0629,1.0737,1.0509,1.0478,1.0376,1.0367,1.0347,1.0337,1.0107,1.0107,1.0107,1.0211,0,0,0,0,0,0,1.1377,1.1336,1.1311,1.1151,1.1103,1.0947,1.0889,1.0859,1.0793,1.0783,1.0626,1.0599,1.0506,1.0393,1.0366,1.0352,1.0329,1.0107,1.0107,1.0107,1.0208,1.0214,1.022,0,0,0,0,0,1.1391,1.135,1.131,1.1276,1.1069,1.0947,1.0919,1.0813,1.0793,1.0767,1.0668,1.0604,1.0373,1.0384,1.0352,1.0335,1.0107,1.0107,1.0107,1.0205,1.0213,1.022,0,0,0,0,0,0,1.1511,1.1327,1.1281,1.1187,1.1084,1.0923,1.0887,1.0825,1.0725,1.0719,1.0592,1.0557,1.0468,1.0391,1.0406,1.0266,1.0233,1.0227,1.0319,1.0326,1.0332,1.0352,1.032,0,0,0,0,0,1.1527,1.1443,1.1287,1.1219,1.117,1.1038,1.098,1.0908,1.0795,1.0751,1.0644,1.0537,1.044,1.0379,1.0281,1.0197,1.016,1.0169,1.0175,1.0181,1.0177,1.0126,1.0128,1.0106,1.0106,1.0106,0,0,1.1558,1.1447,1.1402,1.124,1.1152,1.1068,1.1002,1.0915,1.0851,1.0737,1.0635,1.0554,1.0426,1.0333,1.0286,1.0266,1.0175,1.0181,1.0187,1.0178,1.0126,1.0128,1.013,1.0106,1.0106,1.0106,0,0,1.1571,1.1479,1.1413,1.1326,1.1194,1.1106,1.1091,1.094,1.0882,1.0778,1.0691,1.0614,1.0449,1.0362,1.0296,1.0279,1.0217,1.0251,1.0283,1.0236,1.0238,1.0239,1.0232,1.0231,1.0247,1.0248,1.0248,0,1.1626,1.1496,1.1386,1.1305,1.1237,1.1132,1.1064,1.0985,1.0827,1.0782,1.0762,1.0554,1.0461,1.0346,1.0342,1.0293,1.027,1.0268,1.0247,1.0246,1.0245,1.0238,1.0236,1.0253,1.0252,1.0252,1.0251,0,1.157,1.1482,1.1444,1.1296,1.1224,1.115,1.1029,1.0968,1.0904,1.0819,1.0715,1.0599,1.0477,1.0444,1.0379,1.032,1.0312,1.0271,1.0235,1.0254,1.0245,1.0241,1.026,1.0258,1.0257,1.0255,0,0,1.1648,1.1443,1.1431,1.1363,1.121,1.1139,1.1061,1.0942,1.0893,1.0789,1.072,1.0585,1.0546,1.0472,1.0396,1.0355,1.0349,1.0318,1.0313,1.0327,1.0276,1.0308,1.0306,1.0308,1.0307,1.0306,1.0287,0,1.1639,1.1494,1.1395,1.1288,1.1206,1.1106,1.1038,1.0937,1.0857,1.0774,1.0685,1.0591,1.0548,1.0502,1.0457,1.036,1.0337,1.036,1.0241,1.0238,1.0275,1.0301,1.0333,1.0321,1.0283,1.0282,1.0281,0,1.1608,1.1509,1.1395,1.1253,1.1214,1.1155,1.1039,1.0962,1.0846,1.079,1.0709,1.0632,1.0545,1.0519,1.0397,1.0415,1.0361,1.0306,1.0303,1.0286,1.026,1.0284,1.0314,1.0312,1.0275,1.0275,1.0276,0,1.1677,1.1514,1.1425,1.137,1.1202,1.1163,1.1091,1.0975,1.091,1.0809,1.0766,1.0656,1.0595,1.0511,1.0407,1.0398,1.0295,1.0261,1.0246,1.0248,1.0227,1.0229,1.0248,1.0195,1.0195,1.0195,1.0195,0,1.1676,1.161,1.1453,1.1399,1.1322,1.1209,1.1136,1.1056,1.0954,1.0881,1.0789,1.0723,1.0589,1.0507,1.0425,1.0336,1.0309,1.0261,1.024,1.0269,1.0275,1.023,1.0228,1.0194,1.0194,1.0195,1.0195,0,1.1738,1.163,1.1527,1.1378,1.1339,1.1289,1.116,1.1103,1.1019,1.0929,1.0901,1.0768,1.0667,1.0555,1.0415,1.036,1.0276,1.0246,1.0316,1.0303,1.0294,1.0296,1.0283,1.0275,1.023,1.0231,1.0231,0,1.1744,1.1691,1.1537,1.1483,1.1414,1.1327,1.1262,1.1149,1.1084,1.0949,1.0908,1.08,1.0707,1.055,1.044,1.0333,1.0299,1.0302,1.0282,1.0313,1.0298,1.0302,1.0296,1.0307,1.0308,1.0309,1.031,0,1.1766,1.1716,1.1625,1.1517,1.1442,1.1351,1.1256,1.1217,1.1085,1.1017,1.0913,1.0841,1.07,1.0593,1.0474,1.0398,1.0332,1.0318,1.0308,1.0336,1.0378,1.0354,1.033,1.0318,1.0317,1.0316,1.0316,1.0316,1.1798,1.1747,1.1632,1.1534,1.1452,1.1366,1.1305,1.1215,1.1126,1.1003,1.0942,1.0839,1.0724,1.0557,1.0484,1.0401,1.038,1.0366,1.0363,1.0361,1.0368,1.0394,1.0379,1.0378,1.0378,1.0377,1.0377,0,1.1814,1.1736,1.1648,1.1519,1.1443,1.139,1.1283,1.1222,1.1133,1.1033,1.0944,1.0825,1.0722,1.0606,1.0495,1.0451,1.0418,1.0425,1.0426,1.041,1.0394,1.0412,1.0454,1.0454,1.0454,1.0454,1.0454,1.0454,1.1814,1.1725,1.1662,1.1531,1.1452,1.1352,1.1295,1.1215,1.1135,1.1007,1.0921,1.0847,1.074,1.0621,1.0524,1.0492,1.0455,1.0472,1.0431,1.0418,1.0411,1.0405,1.0422,1.0465,1.0465,1.0454,1.0454,1.0454]},{"header":{"parameterUnit":"m.s-1","parameterCategory":1,"la1":30.2991,"la2":30.254,"lo1":-89.0895,"lo2":-89.0444,"dy":0.0017,"dx":0.0017,"nx":28,"ny":28,"refTime":"2025-03-05T09:00:00:Z","depth":0,"parameterNumber":3,"parameterNumberName":"V-component_of_WINDS"},"data":[0,0,0,0,0,0,0,0,0,0,0,0,0,0,0,0,0,0,0,0,0,0,0,0,0,0,0,0,0,0,0,0,0,0,0,0,0,0,0,0,0,0,0,0,0,0,0,0,0,0,0,0,0,0,0,0,0,0,11.5532,11.5539,0,11.6177,11.6184,11.6191,11.6345,11.634,11.6336,11.6332,11.6981,11.7002,11.7023,0,0,0,0,0,0,0,0,0,0,0,0,0,11.4419,11.4438,11.5531,11.554,11.5548,11.6175,11.6184,11.6193,11.6345,11.634,11.6335,11.633,11.6974,11.6999,11.7025,0,0,0,0,0,0,0,0,0,0,0,0,0,11.4966,11.4445,11.553,11.57,11.5721,11.6174,11.6185,11.6195,11.6347,11.634,11.6334,11.6328,11.6966,11.6997,11.7028,11.7354,0,0,11.7126,11.714,0,0,0,0,0,0,0,0,11.4935,11.5007,11.5667,11.5689,11.5714,11.6174,11.603,11.6584,11.6348,11.6109,11.6332,11.6324,11.6717,11.6769,11.6904,11.7385,11.7412,11.7129,11.7148,11.7162,11.7171,0,0,0,0,0,0,0,11.4897,11.498,11.5786,11.5676,11.5705,11.5739,11.581,11.6136,11.6441,11.6129,11.6142,11.6217,11.6728,11.6872,11.692,11.7422,11.7128,11.7156,11.7176,11.7188,11.82,11.8208,0,0,0,0,0,0,11.4831,11.4947,11.5766,11.5806,11.5301,11.5764,11.5843,11.6032,11.6438,11.6494,11.6221,11.6221,11.6821,11.6883,11.6943,11.7353,11.7161,11.7191,11.721,11.8193,11.8202,11.821,0,0,0,0,0,0,11.4806,11.4903,11.574,11.538,11.549,11.579,11.6001,11.6049,11.6193,11.6508,11.6561,11.6314,11.6819,11.6898,11.7251,11.7377,11.7206,11.7235,11.8183,11.8195,11.8206,11.8172,0,0,0,0,0,0,11.4774,11.4893,11.5024,11.5382,11.5508,11.6041,11.6009,11.6066,11.6249,11.6255,11.6609,11.6661,11.682,11.7203,11.7283,11.7418,11.726,11.8174,11.8189,11.8202,11.8164,11.8181,11.8196,0,0,0,0,0,11.4734,11.4986,11.503,11.5128,11.5679,11.6048,11.612,11.6301,11.6259,11.6391,11.6591,11.6649,11.7349,11.7238,11.7329,11.7476,11.8167,11.8184,11.8201,11.8156,11.8178,11.8196,0,0,0,0,0,0,11.4632,11.5037,11.5089,11.5466,11.5722,11.6074,11.6246,11.6318,11.6589,11.6583,11.6792,11.687,11.7209,11.7377,11.7246,11.7811,11.7756,11.7793,11.7691,11.7714,11.773,11.7684,11.7286,0,0,0,0,0,11.4653,11.4924,11.5261,11.5561,11.5687,11.5944,11.6111,11.6229,11.6501,11.6609,11.6836,11.7094,11.7373,11.7551,11.7825,11.8186,11.8265,11.8331,11.8347,11.8359,11.839,11.8593,11.8626,11.8267,11.8267,11.8267,0,0,11.4701,11.4955,11.5113,11.5547,11.576,11.6031,11.6034,11.6322,11.6525,11.6651,11.7001,11.7175,11.7476,11.7835,11.8004,11.7985,11.8505,11.8382,11.8389,11.8414,11.8614,11.8647,11.8677,11.8279,11.8277,11.8275,0,0,11.4927,11.5147,11.5422,11.5634,11.5956,11.6124,11.6189,11.653,11.6652,11.7006,11.7106,11.7346,11.7822,11.8033,11.8202,11.8502,11.8565,11.8584,11.8672,11.8867,11.8895,11.8921,11.9029,11.9066,11.8612,11.8612,11.8612,0,11.4945,11.5364,11.5552,11.5837,11.6023,11.6152,11.6429,11.6624,11.7016,11.714,11.7113,11.7711,11.7923,11.8333,11.8405,11.8537,11.8616,11.8548,11.8876,11.8904,11.8931,11.9037,11.9077,11.8612,11.8612,11.8612,11.8612,0,11.5369,11.5657,11.5839,11.6219,11.6425,11.6703,11.693,11.7115,11.7211,11.738,11.7736,11.7994,11.8322,11.8426,11.8522,11.8849,11.8828,11.8835,11.8786,11.8963,11.9066,11.9108,11.8613,11.8613,11.8613,11.8613,0,0,11.5556,11.6035,11.6099,11.6272,11.6634,11.6858,11.7138,11.7462,11.7617,11.788,11.8121,11.8517,11.8527,11.8718,11.8838,11.9008,11.923,11.8996,11.9006,11.9033,11.9605,11.96,11.9644,11.9271,11.928,11.9287,11.9581,0,11.5829,11.6344,11.6519,11.6942,11.7209,11.7331,11.7576,11.7821,11.7985,11.8232,11.841,11.8689,11.868,11.8796,11.897,11.9166,11.9348,11.9147,11.9496,11.9506,11.9422,11.9698,11.9695,11.996,11.9622,11.9629,11.9634,0,11.6219,11.6493,11.6944,11.7271,11.7389,11.7607,11.7916,11.815,11.8429,11.8535,11.8747,11.8854,11.9148,11.9076,11.9483,11.9342,11.9494,11.9611,11.9625,11.9668,11.9584,11.9751,12.0049,12.009,11.9699,11.9694,11.9689,0,11.6313,11.6792,11.7125,11.7268,11.7657,11.7807,11.7975,11.8248,11.843,11.8697,11.8817,11.9113,11.9276,11.95,11.9682,11.9613,12.0073,12.0016,12.0169,12.0165,12.0265,12.0257,12.0595,12.0355,12.0354,12.0354,12.0353,0,11.6602,11.6874,11.7172,11.7377,11.7683,11.7877,11.8173,11.8347,11.8588,11.8825,11.8945,11.9164,11.939,11.9637,11.9779,12.0095,12.0166,12.0259,12.0295,12.0252,12.0241,12.0358,12.0345,12.0364,12.0362,12.036,12.0358,0,11.6761,11.6972,11.7343,11.768,11.777,11.7981,11.8268,11.8469,11.8634,11.8933,11.9014,11.9274,11.9571,11.9774,12.0153,12.0249,12.0591,12.0622,12.0499,12.0517,12.066,12.0645,12.1088,12.1157,12.0866,12.0869,12.0871,0,11.6935,11.7148,11.7507,11.7677,11.7846,11.8117,11.8304,11.85,11.8689,11.902,11.918,11.9485,11.9742,12.0209,12.043,12.0719,12.076,12.0895,12.0804,12.0754,12.0765,12.0752,12.0775,12.091,12.0912,12.0914,12.0916,0,11.7221,11.7314,11.7581,11.7885,11.8105,11.8352,11.8599,11.8729,11.8968,11.9173,11.948,11.9678,12.0066,12.0367,12.0677,12.0845,12.0921,12.0941,12.0993,12.0953,12.0875,12.0922,12.0542,12.0932,12.093,12.0929,12.0928,12.0927,11.7396,11.759,11.7874,11.8166,11.8373,11.8601,11.8806,11.8998,11.9259,11.9593,11.969,12.0009,12.0278,12.0703,12.0875,12.1125,12.1113,12.1186,12.1206,12.1222,12.1224,12.083,12.1181,12.1181,12.1181,12.118,12.118,0,11.769,11.7878,11.8145,11.8489,11.8718,11.8769,11.9044,11.9231,11.9512,11.9757,12.0007,12.0357,12.0648,12.089,12.119,12.1343,12.1385,12.1416,12.1409,12.1446,12.1216,12.1143,12.1377,12.1377,12.1377,12.1377,12.1377,12.1377,11.7871,11.8203,11.8328,11.8761,11.8946,11.9263,11.9415,11.9624,11.9822,12.0209,12.0454,12.061,12.0854,12.1172,12.144,12.1503,12.1609,12.1633,12.1703,12.1485,12.1462,12.1441,12.1374,12.1653,12.1653,12.1914,12.1917,12.1918]}]]